VK1ET-13 Weather Reports


time (UTC)temp
F
wind
direction
speed
knots
gust
knots
rain 1hr
in
rain 24hr
in
rain mn
in
humidity
%
barometer
mb
20260902000537 63 314 5.2 10.4 0.00 0.00 0.00 67 1016.4
20260901234527 63 315 4.3 11.3 0.00 0.00 0.00 69 1016.2
20260901233524 62 315 4.3 8.7 0.00 0.00 0.00 70 1016.2
20260901231519 61 321 2.6 8.7 0.00 0.00 0.00 71 1016.0
20260901231030 61 337 5.2 11.3 0.00 0.00 0.00 71 1016.1
20260901225519 61 307 5.2 11.3 0.00 0.00 0.00 71 1016.2
20260901224526 60 304 7.8 8.7 0.00 0.00 0.00 72 1016.4
20260901224503 60 340 4.3 9.6 0.00 0.00 0.00 72 1016.4
20260901223531 60 331 2.6 3.5 0.00 0.00 0.00 73 1016.3
20260901223021 60 318 5.2 8.7 0.00 0.00 0.00 72 1016.3
20260901221530 60 308 6.1 11.3 0.00 0.00 0.00 73 1016.2
20260901220024 59 312 3.5 7.8 0.00 0.00 0.00 74 1016.1
20260901215034 60 316 3.5 11.3 0.00 0.00 0.00 74 1015.8
20260901214029 59 326 4.3 9.6 0.00 0.00 0.00 74 1015.7
20260901213030 59 307 3.5 9.6 0.00 0.00 0.00 74 1015.6
20260901212035 59 310 6.1 13.0 0.00 0.00 0.00 76 1015.4
20260901211018 58 305 4.3 10.4 0.00 0.00 0.00 78 1015.4
20260901210022 58 318 7.0 11.3 0.00 0.00 0.00 78 1015.4
20260901205034 57 314 5.2 11.3 0.00 0.00 0.00 79 1015.2
20260901204031 57 304 4.3 7.0 0.00 0.00 0.00 81 1015.3
20260901203034 56 312 3.5 7.0 0.00 0.00 0.00 83 1015.1
20260901202036 56 141 0.9 2.6 0.00 0.00 0.00 82 1015.2
20260901201019 57 7 0.9 2.6 0.00 0.00 0.00 81 1015.0
20260901200023 57 332 1.7 4.3 0.00 0.00 0.00 80 1015.0
20260901195026 58 317 3.5 6.1 0.00 0.00 0.00 80 1014.9
20260901194029 58 302 3.5 5.2 0.00 0.00 0.00 80 1014.8
20260901193033 58 308 2.6 7.0 0.00 0.00 0.00 80 1014.7
20260901192037 57 297 2.6 7.0 0.00 0.00 0.00 80 1014.7
20260901191027 58 314 3.5 9.6 0.00 0.00 0.00 80 1014.6
20260901190024 57 326 2.6 6.1 0.00 0.00 0.00 81 1014.7
20260901185027 57 330 1.7 7.8 0.00 0.00 0.00 81 1014.6
20260901184032 57 354 2.6 6.1 0.00 0.00 0.00 81 1014.5
20260901183035 57 16 2.6 6.1 0.00 0.00 0.00 81 1014.5
20260901182018 57 344 1.7 5.2 0.00 0.00 0.00 83 1015.0
20260901181035 57 358 2.6 6.1 0.00 0.00 0.00 84 1015.2
20260901180023 57 23 2.6 7.0 0.00 0.00 0.00 82 1015.1
20260901175030 57 5 2.6 5.2 0.00 0.00 0.00 82 1014.9
20260901174030 57 360 1.7 5.2 0.00 0.00 0.00 82 1014.9
20260901173034 57 17 1.7 5.2 0.00 0.00 0.00 82 1015.0
20260901172024 57 24 2.6 6.1 0.00 0.00 0.00 83 1014.9
20260901171020 58 41 1.7 5.2 0.00 0.00 0.00 80 1014.8
20260901170030 57 359 1.7 4.3 0.00 0.00 0.00 80 1015.9
20260901165026 57 27 0.9 4.3 0.00 0.00 0.00 81 1016.0
20260901164034 57 341 0.9 2.6 0.00 0.00 0.00 81 1016.0
20260901163022 57 321 0.9 1.7 0.00 0.00 0.00 81 1015.9
20260901162029 57 340 0.9 3.5 0.00 0.00 0.00 81 1016.0
20260901161038 58 2 1.7 3.5 0.00 0.00 0.00 79 1015.9
20260901160034 59 200 0.9 2.6 0.00 0.00 0.00 73 1015.7
20260901142041 57 25 1.7 4.3 0.00 0.00 0.00 83 1016.3
20260901140534 58 340 2.6 7.8 0.00 0.00 0.00 82 1016.7
20260901135523 57 329 2.6 4.3 0.00 0.00 0.00 83 1016.4
20260901133527 56 340 1.7 3.5 0.00 0.00 0.00 84 1016.6
20260901132532 56 357 0.9 3.5 0.00 0.00 0.00 84 1016.7
20260901131521 56 358 1.7 5.2 0.00 0.00 0.00 85 1017.1
20260901130528 56 15 0.9 2.6 0.00 0.00 0.00 84 1017.3
20260901125533 56 7 0.9 2.6 0.00 0.00 0.00 83 1017.6
20260901124517 57 358 0.9 1.7 0.00 0.00 0.00 82 1017.6
20260901123526 57 342 0.0 2.6 0.00 0.00 0.00 81 1017.8
20260901122034 57 316 0.9 1.7 0.00 0.00 0.00 82 1018.0
20260901121020 57 344 0.9 1.7 0.00 0.00 0.00 81 1018.0
20260901120024 57 334 0.9 2.6 0.00 0.00 0.00 80 1018.3
20260901115036 58 351 0.9 1.7 0.00 0.00 0.00 78 1018.3
20260901082033 64 320 1.7 3.5 0.00 0.00 0.00 62 1019.2
20260901081033 64 299 2.6 8.7 0.00 0.00 0.00 60 1019.0
20260901080021 64 307 3.5 6.1 0.00 0.00 0.00 59 1019.0
20260901075023 65 305 4.3 8.7 0.00 0.00 0.00 58 1019.0
20260901074026 65 290 3.5 8.7 0.00 0.00 0.00 56 1019.0
20260901073031 65 304 4.3 9.6 0.00 0.00 0.00 55 1019.0
20260901072037 66 305 4.3 9.6 0.00 0.00 0.00 53 1019.1
20260901071037 67 282 6.1 9.6 0.00 0.00 0.00 51 1018.9
20260901070533 67 319 7.0 10.4 0.00 0.00 0.00 51 1019.0
20260901064531 68 297 5.2 10.4 0.00 0.00 0.00 48 1019.1
20260901063025 68 288 4.3 9.6 0.00 0.00 0.00 50 1019.3
20260901062032 68 284 5.2 7.8 0.00 0.00 0.00 49 1019.4
20260901060519 68 291 5.2 14.8 0.00 0.00 0.00 48 1019.4
20260901055523 68 282 5.2 13.0 0.00 0.00 0.00 48 1019.4
20260901054527 68 291 7.8 14.8 0.00 0.00 0.00 47 1019.4
20260901053538 68 289 5.2 9.6 0.00 0.00 0.00 48 1019.5
20260901052547 68 266 5.2 9.6 0.00 0.00 0.00 47 1019.5
20260901051520 69 278 9.6 14.8 0.00 0.00 0.00 46 1019.6
20260901051029 69 328 10.4 13.9 0.00 0.00 0.00 45 1019.6
20260901050951 69 292 8.7 18.2 0.00 0.00 0.00 46 1019.9
20260901043027 70 256 5.2 7.8 0.00 0.00 0.00 42 1019.8
20260901042952 69 268 7.0 13.0 0.00 0.00 0.00 44 1019.9
20260901033521 69 292 8.7 16.5 0.00 0.00 0.00 42 1020.8
20260901032524 69 290 9.6 15.6 0.00 0.00 0.00 42 1020.8
20260901031531 68 273 9.6 14.8 0.00 0.00 0.00 43 1021.0
20260901030031 68 287 8.7 16.5 0.00 0.00 0.00 43 1021.4
20260901025018 68 274 7.8 18.2 0.00 0.00 0.00 42 1021.5
20260901024025 68 278 7.0 15.6 0.00 0.00 0.00 43 1021.6
20260901023032 68 283 8.7 17.4 0.00 0.00 0.00 41 1021.9
20260901022018 67 270 9.6 18.2 0.00 0.00 0.00 44 1021.9
20260901021025 68 255 7.8 14.8 0.00 0.00 0.00 46 1022.1
20260901020045 68 297 7.8 17.4 0.00 0.00 0.00 47 1022.4